Regional Weather Roundup
Issued by NWS

Home | Current Version | Previous Version | Text Only | Print | Product List | Glossary On
Versions: 1 2 3 4 5 6 7 8 9 10 11 12 13 14 15 16 17 18 19 20 21 22 23 24 25 26 27 28 29 30 31 32 33 34 35 36 37 38 39 40 41 42 43 44 45 46 47 48 49 50
000
ASUS44 KBMX 311310
RWRAL

ALABAMA REGIONAL WEATHER ROUNDUP
NATIONAL WEATHER SERVICE BIRMINGHAM AL
700 AM CST SAT JAN 31 2015

NOTE: "FAIR" INDICATES FEW OR NO CLOUDS BELOW 12,000 FEET
WITH NO SIGNIFICANT WEATHER AND/OR OBSTRUCTIONS TO VISIBILITY.

THE REMARK "TC" DENOTES TEMPERATURE IN DEGREES CELSIUS.

ALZ001>011-014-016>018-020-311400-
NORTH ALABAMA

CITY           SKY/WX    TMP DP  RH WIND       PRES   REMARKS
MUSCLE SHOALS  CLOUDY    32  25  75 CALM      30.39R
HUNTSVILLE     MOCLDY    30  23  75 CALM      30.37R
DECATUR          N/A    N/A N/A N/A MISG      30.38R
HALEYVILLE       N/A     30  24  78 CALM      30.37R
GADSDEN        MOCLDY    28  21  74 CALM      30.38R
$$

ALZ012-013-022-023-030>036-040>044-311400-
WEST CENTRAL ALABAMA

CITY           SKY/WX    TMP DP  RH WIND       PRES   REMARKS
TUSCALOOSA     MOCLDY    32  25  75 CALM      30.38R
$$

ALZ015-024>027-033>036-040>044-311400-
CENTRAL ALABAMA

CITY           SKY/WX    TMP DP  RH WIND       PRES   REMARKS
BIRMINGHAM     MOCLDY    35  20  54 NE7       30.37S WCI  29
MONTGOMERY     PTCLDY    31  23  72 N5        30.37R WCI  26
SHELBY CO ARPT PTCLDY    34  21  59 NE8       30.36R WCI  27
MAXWELL AFB    CLOUDY    31  26  83 NE3       30.37R
GREENVILLE     FAIR      32  23  69 N3        30.33R
$$

ALZ019-021-028-029-037-038-045>048-311400-
EAST CENTRAL ALABAMA

CITY           SKY/WX    TMP DP  RH WIND       PRES   REMARKS
ANNISTON       MOCLDY    31  22  69 NE5       30.36S WCI  26
ALEXANDER CITY PTCLDY    29  21  72 CALM      30.35R
AUBURN         CLEAR     30  18  59 NE10      30.35S WCI  21
$$

ALZ051>064-311400-
SOUTHWEST ALABAMA

CITY           SKY/WX    TMP DP  RH WIND       PRES   REMARKS
MOBILE         PTCLDY    35  25  66 NE7       30.33R WCI  29
BROOKLEY FIELD CLEAR     42  29  59 NE9       30.34R
EVERGREEN      CLEAR     28  25  88 CALM      30.34S
$$

ALZ049-050-065>069-311400-
SOUTHEAST ALABAMA

CITY           SKY/WX    TMP DP  RH WIND       PRES   REMARKS
DOTHAN         CLEAR     33  25  72 NE5       30.37R WCI  29
OZARK          CLEAR     30  24  78 NE5       30.34R WCI  25
TROY           CLEAR     28  24  85 CALM      30.35R
EUFAULA        MIX PCPN  28  24  85 CALM      30.35S
$$


USA.gov is the U.S. government's official web portal to all federal, state and local government web resources and services.